Weather History for Omaha Offutt, NE

Change the Weather History Date:

Thursday, June 27, 2013

  Actual Average Record
Temperature  
Mean Temperature 73 °F -  
Max Temperature 83 °F 82 °F 100 °F (2012)
Min Temperature 64 °F 63 °F 57 °F (2003)
Cooling Degree Days 8    
Growing Degree Days 23 (Base 50)    
Moisture  
Dew Point 67 °F    
Average Humidity 93    
Maximum Humidity 100    
Minimum Humidity 60    
Precipitation  
Precipitation 0.27 in - - ()
Sea Level Pressure  
Sea Level Pressure 29.94 in    
Wind  
Wind Speed 3 mph (NNE)    
Max Wind Speed 14 mph    
Max Gust Speed 20 mph    
Visibility 7 miles    
Events Fog , Rain , Thunderstorm    
Averages and records for this station are not official NWS values.
T = Trace of Precipitation, MM = Missing Value Source: NWS Daily Summary

Daily Weather History Graph

Daily Weather History Graph

Search for Another Location

Airport:

Trip Planner

Search our weather history database for the weather conditions in past years. The results will help you decide how hot, cold, wet, or windy it might be!

Date:

Astronomy

Jun. 27, 2013 Rise Set
Actual Time 5:53 AM CDT 9:00 PM CDT
Civil Twilight 5:19 AM CDT 9:33 PM CDT
Nautical Twilight 4:36 AM CDT 10:16 PM CDT
Astronomical Twilight 3:45 AM CDT 11:07 PM CDT
Moon 11:54 PM CDT (6/27) 10:58 AM CDT (6/27)
Length of Visible Light 16h 14m
Length of Day
15h 07m
Waning Gibbous, 76% of the Moon is Illuminated
Jun 27
Waning Gibbous
Jun 29
Last Quarter
Jul 8
New
Jul 15
First Quarter
Jul 22
Full

Hourly Weather History & Observations

Time (CDT) Temp. Heat Index Dew Point Humidity Pressure Visibility Wind Dir Wind Speed Gust Speed Precip Events Conditions
12:43 AM 66.2 °F - 66.2 °F 100% 29.90 in 9.0 mi NNE 1.2 mph - N/A   Clear
12:48 AM 66.2 °F - 66.2 °F 100% 29.90 in 9.0 mi Calm Calm - N/A   Clear
12:58 AM 66.6 °F - 66.2 °F 99% 29.88 in 10.0 mi ENE 2.3 mph - N/A   Clear
1:48 AM 64.4 °F - 64.4 °F 100% 29.89 in 9.0 mi North 2.3 mph - N/A   Clear
1:53 AM 64.4 °F - 64.4 °F 100% 29.89 in 3.0 mi NNW 2.3 mph - N/A   Clear
1:58 AM 64.9 °F - 64.6 °F 99% 29.88 in 2.5 mi NNW 2.3 mph - N/A   Clear
2:03 AM 64.4 °F - 64.4 °F 100% 29.89 in 5.0 mi Calm Calm - N/A   Clear
2:08 AM 64.4 °F - 64.4 °F 100% 29.90 in 10.0 mi Calm Calm - N/A   Clear
2:14 AM 66.2 °F - 66.2 °F 100% 29.89 in 10.0 mi Calm Calm - N/A   Light Drizzle
2:17 AM 66.2 °F - 66.2 °F 100% 29.89 in 10.0 mi Calm Calm - N/A   Clear
2:37 AM 66.2 °F - 64.4 °F 94% 29.90 in 6.0 mi West 1.2 mph - N/A   Clear
2:42 AM 64.4 °F - 64.4 °F 100% 29.90 in 2.0 mi Calm Calm - N/A   Clear
2:52 AM 64.4 °F - 64.4 °F 100% 29.90 in 5.0 mi Calm Calm - N/A   Clear
2:58 AM 64.0 °F - 63.9 °F 99% 29.89 in 7.0 mi NNE 1.2 mph - 0.00 in   Clear
3:03 AM 64.4 °F - 64.4 °F 100% 29.90 in 4.0 mi NNE 1.2 mph - N/A   Clear
3:08 AM 64.4 °F - 64.4 °F 100% 29.90 in 2.5 mi NE 2.3 mph - N/A   Clear
3:13 AM 64.4 °F - 64.4 °F 100% 29.90 in 3.0 mi NE 2.3 mph - N/A   Clear
3:18 AM 64.4 °F - 64.4 °F 100% 29.90 in 6.0 mi ENE 1.2 mph - N/A   Clear
3:28 AM 66.2 °F - 66.2 °F 100% 29.91 in 10.0 mi South 2.3 mph - N/A   Clear
3:53 AM 66.2 °F - 66.2 °F 100% 29.90 in 8.0 mi Calm Calm - N/A   Clear
3:58 AM 66.2 °F - 66.2 °F 100% 29.89 in 5.0 mi Calm Calm - N/A   Clear
4:03 AM 66.2 °F - 66.2 °F 100% 29.90 in 1.2 mi Calm Calm - N/A   Clear
4:08 AM 64.4 °F - 64.4 °F 100% 29.91 in 0.8 mi Calm Calm - N/A   Clear
4:13 AM 64.4 °F - 64.4 °F 100% 29.91 in 1.0 mi SSE 1.2 mph - N/A   Clear
4:18 AM 66.2 °F - 66.2 °F 100% 29.91 in 1.5 mi South 2.3 mph - N/A   Clear
4:23 AM 66.2 °F - 66.2 °F 100% 29.91 in 4.0 mi South 1.2 mph - N/A   Clear
4:32 AM 64.4 °F - 64.4 °F 100% 29.91 in 1.5 mi South 3.5 mph - N/A   Light Drizzle
4:37 AM 64.4 °F - 64.4 °F 100% 29.92 in 2.0 mi South 4.6 mph - N/A   Light Drizzle
4:38 AM 64.4 °F - 64.4 °F 100% 29.91 in 3.0 mi South 3.5 mph - N/A   Clear
4:43 AM 66.2 °F - 66.2 °F 100% 29.91 in 7.0 mi SE 2.3 mph - N/A   Clear
4:48 AM 66.2 °F - 66.2 °F 100% 29.91 in 3.0 mi Calm Calm - N/A   Clear
4:53 AM 66.2 °F - 66.2 °F 100% 29.91 in 1.0 mi Calm Calm - N/A   Clear
4:58 AM 66.2 °F - 66.2 °F 100% 29.90 in 0.5 mi Calm Calm - 0.00 in Fog Fog
5:13 AM 66.2 °F - 66.2 °F 100% 29.91 in 1.0 mi Calm Calm - N/A   Partly Cloudy
5:18 AM 66.2 °F - 66.2 °F 100% 29.91 in 1.0 mi SSE 2.3 mph - N/A   Partly Cloudy
5:23 AM 66.2 °F - 66.2 °F 100% 29.91 in 1.5 mi ESE 1.2 mph - N/A   Scattered Clouds
5:28 AM 64.4 °F - 64.4 °F 100% 29.91 in 9.0 mi Calm Calm - N/A   Scattered Clouds
5:58 AM 65.5 °F - 65.5 °F 100% 29.91 in 10.0 mi NE 1.2 mph - N/A   Mostly Cloudy
6:58 AM 69.3 °F - 69.3 °F 100% 29.93 in 10.0 mi NNE 5.8 mph - N/A   Scattered Clouds
7:58 AM 72.0 °F - 71.6 °F 99% 29.91 in 10.0 mi NE 2.3 mph - N/A   Scattered Clouds
8:58 AM 73.2 °F - 71.4 °F 94% 29.97 in 10.0 mi WSW 13.8 mph - N/A   Clear
9:03 AM 73.4 °F - 69.8 °F 88% 29.98 in 10.0 mi West 8.1 mph - N/A   Light Drizzle
9:15 AM 73.4 °F - 69.8 °F 88% 29.97 in 10.0 mi NW 2.3 mph - N/A   Partly Cloudy
9:24 AM 75.2 °F - 69.8 °F 83% 29.96 in 10.0 mi ENE 4.6 mph - N/A   Light Drizzle
9:33 AM 75.2 °F - 69.8 °F 83% 29.96 in 10.0 mi NE 3.5 mph - N/A   Partly Cloudy
9:47 AM 73.4 °F - 69.8 °F 88% 29.97 in 10.0 mi North 9.2 mph - N/A Thunderstorm Mostly Cloudy
9:58 AM 74.3 °F - 68.2 °F 81% 29.99 in 10.0 mi North 11.5 mph - 0.00 in Thunderstorm Scattered Clouds
9:59 AM 75.2 °F - 68.0 °F 78% 30.00 in 10.0 mi North 12.7 mph - N/A Rain , Thunderstorm Light Rain
10:07 AM 75.2 °F - 66.2 °F 73% 30.00 in 10.0 mi North 11.5 mph 19.6 mph N/A Rain , Thunderstorm Light Thunderstorms and Rain
10:14 AM 75.2 °F - 66.2 °F 73% 29.99 in 10.0 mi North 10.4 mph 18.4 mph N/A Rain , Thunderstorm Light Rain
10:17 AM 75.2 °F - 66.2 °F 73% 29.99 in 10.0 mi North 8.1 mph 18.4 mph N/A Rain , Thunderstorm Light Thunderstorms and Rain
10:36 AM 73.4 °F - 66.2 °F 78% 29.99 in 10.0 mi South 2.3 mph - N/A Rain , Thunderstorm Light Rain
10:58 AM 72.0 °F - 69.8 °F 93% 29.98 in 10.0 mi East 3.5 mph - 0.02 in Rain , Thunderstorm Light Rain
11:51 AM 71.6 °F - 69.8 °F 94% 29.98 in 10.0 mi NE 6.9 mph - N/A Rain , Thunderstorm Light Thunderstorms and Rain
11:53 AM 71.6 °F - 69.8 °F 94% 29.98 in 10.0 mi North 5.8 mph - N/A Rain , Thunderstorm Light Thunderstorms and Rain
11:58 AM 71.1 °F - 70.2 °F 97% 29.99 in 10.0 mi NE 8.1 mph - 0.04 in Rain , Thunderstorm Light Thunderstorms and Rain
12:10 PM 71.6 °F - 69.8 °F 94% 29.97 in 10.0 mi NNE 8.1 mph - N/A Rain , Thunderstorm Light Rain
12:17 PM 71.6 °F - 69.8 °F 94% 29.97 in 10.0 mi NNE 8.1 mph - N/A Thunderstorm Clear
12:58 PM 73.2 °F - 71.1 °F 93% 29.99 in 10.0 mi North 6.9 mph - 0.01 in Thunderstorm Scattered Clouds
1:07 PM 73.4 °F - 69.8 °F 88% 30.01 in 10.0 mi Variable 5.8 mph - N/A Thunderstorm Thunderstorm
1:13 PM 73.4 °F - 69.8 °F 88% 30.01 in 10.0 mi Variable 4.6 mph - N/A Thunderstorm Mostly Cloudy
1:28 PM 73.4 °F - 69.8 °F 88% 29.99 in 10.0 mi NNE 8.1 mph - N/A Rain , Thunderstorm Light Thunderstorms and Rain
1:41 PM 73.4 °F - 69.8 °F 88% 29.98 in 10.0 mi ENE 6.9 mph - N/A Thunderstorm Thunderstorm
1:57 PM 71.6 °F - 71.6 °F 100% 29.98 in 4.0 mi North 9.2 mph - N/A Rain , Thunderstorm Heavy Thunderstorms and Rain
1:58 PM 71.6 °F - 71.6 °F 100% 29.98 in 4.0 mi North 10.4 mph - 0.06 in Rain , Thunderstorm Heavy Thunderstorms and Rain
2:08 PM 71.6 °F - 71.6 °F 100% 30.00 in 2.0 mi NNW 8.1 mph - N/A Rain , Thunderstorm Heavy Thunderstorms and Rain
2:13 PM 71.6 °F - 69.8 °F 94% 30.00 in 2.5 mi Calm Calm - N/A Rain , Thunderstorm Light Thunderstorms and Rain
2:20 PM 71.6 °F - 69.8 °F 94% 29.99 in 5.0 mi Variable 2.3 mph - N/A Rain , Thunderstorm Rain
2:32 PM 71.6 °F - 69.8 °F 94% 29.99 in 10.0 mi Calm Calm - N/A Thunderstorm Scattered Clouds
2:58 PM 73.2 °F - 70.5 °F 91% 29.97 in 10.0 mi ESE 4.6 mph - 0.13 in   Mostly Cloudy
3:58 PM 77.2 °F - 70.9 °F 81% 29.99 in 10.0 mi Calm Calm - N/A   Partly Cloudy
4:58 PM 82.0 °F 85.1 °F 68.4 °F 63% 29.95 in 10.0 mi Variable 5.8 mph - 0.01 in   Scattered Clouds
5:58 PM 82.6 °F 85.3 °F 67.3 °F 60% 29.93 in 10.0 mi NNW 5.8 mph - N/A   Mostly Cloudy
6:58 PM 82.9 °F 86.0 °F 68.4 °F 61% 29.93 in 10.0 mi West 1.2 mph - N/A   Partly Cloudy
7:58 PM 81.9 °F 86.6 °F 72.1 °F 72% 29.91 in 10.0 mi NW 4.6 mph - N/A   Partly Cloudy
8:58 PM 77.5 °F - 67.6 °F 71% 29.91 in 10.0 mi NW 4.6 mph - N/A   Clear
9:58 PM 77.4 °F - 66.9 °F 70% 29.96 in 10.0 mi West 3.5 mph - N/A   Clear
10:58 PM 68.2 °F - 67.3 °F 97% 29.97 in 10.0 mi West 3.5 mph - N/A   Clear
11:58 PM 69.6 °F - 67.6 °F 93% 29.96 in 10.0 mi WNW 8.1 mph - N/A   Clear